Time,TemperatureF,DewpointF,PressureIn,WindDirection,WindDirectionDegrees,WindSpeedMPH,WindSpeedGustMPH,Humidity,HourlyPrecipIn,Conditions,Clouds,dailyrainin,SoftwareType,DateUTC
2013-02-28 00:05:00,24.7,23.0,29.68,NNE,13,3.0,19.0,93,0.00,,,0.00,weatherlink.com 1.10,2013-02-28 05:05:00,
2013-02-28 00:20:00,24.5,23.0,29.68,NNE,19,2.0,16.0,92,0.00,,,0.00,weatherlink.com 1.10,2013-02-28 05:20:00,
2013-02-28 00:35:00,24.3,22.0,29.67,NE,36,0.0,11.0,91,0.00,,,0.00,weatherlink.com 1.10,2013-02-28 05:35:00,
2013-02-28 00:50:00,24.1,22.0,29.68,NE,49,3.0,8.0,92,0.00,,,0.00,weatherlink.com 1.10,2013-02-28 05:50:00,
2013-02-28 01:05:00,23.8,22.0,29.67,North,355,5.0,10.0,92,0.00,,,0.00,weatherlink.com 1.10,2013-02-28 06:05:00,
2013-02-28 01:20:00,23.6,22.0,29.67,North,355,6.0,9.0,92,0.00,,,0.00,weatherlink.com 1.10,2013-02-28 06:20:00,
2013-02-28 01:50:00,22.9,21.0,29.68,North,5,7.0,18.0,92,0.00,,,0.00,weatherlink.com 1.10,2013-02-28 06:50:00,
2013-02-28 02:05:00,22.5,21.0,29.67,West,277,5.0,15.0,92,0.00,,,0.00,weatherlink.com 1.10,2013-02-28 07:05:00,
2013-02-28 02:20:00,22.2,21.0,29.66,NW,319,5.0,13.0,93,0.00,,,0.00,weatherlink.com 1.10,2013-02-28 07:20:00,
2013-02-28 02:35:00,21.9,20.0,29.66,NNW,342,10.0,12.0,93,0.00,,,0.00,weatherlink.com 1.10,2013-02-28 07:35:00,
2013-02-28 02:50:00,21.4,20.0,29.66,NNW,336,6.0,15.0,93,0.00,,,0.00,weatherlink.com 1.10,2013-02-28 07:50:00,
2013-02-28 03:05:00,21.2,20.0,29.64,NW,316,8.0,15.0,93,0.00,,,0.00,weatherlink.com 1.10,2013-02-28 08:05:00,
2013-02-28 03:20:00,21.1,19.0,29.64,North,11,3.0,18.0,93,0.00,,,0.00,weatherlink.com 1.10,2013-02-28 08:20:00,
2013-02-28 03:35:00,21.2,19.0,29.65,WNW,299,7.0,16.0,92,0.00,,,0.00,weatherlink.com 1.10,2013-02-28 08:35:00,
2013-02-28 03:50:00,21.2,20.0,29.65,NW,320,5.0,11.0,93,0.00,,,0.00,weatherlink.com 1.10,2013-02-28 08:50:00,
2013-02-28 04:05:00,21.1,20.0,29.63,North,355,6.0,13.0,94,0.00,,,0.00,weatherlink.com 1.10,2013-02-28 09:05:00,
2013-02-28 04:20:00,21.1,20.0,29.63,NNE,22,3.0,17.0,94,0.00,,,0.00,weatherlink.com 1.10,2013-02-28 09:20:00,
2013-02-28 04:35:00,21.1,20.0,29.63,NNW,342,6.0,14.0,94,0.00,,,0.00,weatherlink.com 1.10,2013-02-28 09:35:00,
2013-02-28 04:50:00,21.1,20.0,29.63,NNE,15,7.0,17.0,94,0.00,,,0.00,weatherlink.com 1.10,2013-02-28 09:50:00,
2013-02-28 05:05:00,21.2,20.0,29.63,West,259,12.0,13.0,94,0.00,,,0.00,weatherlink.com 1.10,2013-02-28 10:05:00,
2013-02-28 05:20:00,21.2,20.0,29.62,NW,325,8.0,10.0,94,0.00,,,0.00,weatherlink.com 1.10,2013-02-28 10:20:00,
2013-02-28 05:35:00,20.4,19.0,29.64,NNE,24,3.0,15.0,94,0.00,,,0.00,weatherlink.com 1.10,2013-02-28 10:35:00,
2013-02-28 05:51:00,19.7,18.0,29.62,NE,40,5.0,20.0,93,0.00,,,0.00,weatherlink.com 1.10,2013-02-28 10:51:00,
2013-02-28 06:06:00,19.4,18.0,29.64,NW,319,3.0,12.0,94,0.00,,,0.00,weatherlink.com 1.10,2013-02-28 11:06:00,
2013-02-28 06:21:00,19.4,18.0,29.64,NW,323,7.0,14.0,93,0.00,,,0.00,weatherlink.com 1.10,2013-02-28 11:21:00,
2013-02-28 06:36:00,19.4,18.0,29.64,NE,43,5.0,18.0,93,0.00,,,0.00,weatherlink.com 1.10,2013-02-28 11:36:00,
2013-02-28 06:51:00,19.2,18.0,29.64,NW,319,4.0,15.0,93,0.00,,,0.00,weatherlink.com 1.10,2013-02-28 11:51:00,
2013-02-28 07:06:00,19.3,18.0,29.65,North,355,6.0,13.0,93,0.00,,,0.00,weatherlink.com 1.10,2013-02-28 12:06:00,
2013-02-28 07:21:00,19.2,18.0,29.66,North,355,10.0,14.0,93,0.00,,,0.00,weatherlink.com 1.10,2013-02-28 12:21:00,
2013-02-28 07:36:00,19.1,17.0,29.67,NNE,17,5.0,13.0,93,0.00,,,0.00,weatherlink.com 1.10,2013-02-28 12:36:00,
2013-02-28 07:51:00,19.3,18.0,29.68,NNW,346,2.0,10.0,93,0.00,,,0.00,weatherlink.com 1.10,2013-02-28 12:51:00,
2013-02-28 08:06:00,19.1,17.0,29.68,NE,54,5.0,13.0,93,0.00,,,0.00,weatherlink.com 1.10,2013-02-28 13:06:00,
2013-02-28 08:21:00,18.9,17.0,29.67,NNE,30,5.0,14.0,93,0.00,,,0.00,weatherlink.com 1.10,2013-02-28 13:21:00,
2013-02-28 08:36:00,19.0,18.0,29.67,West,272,9.0,13.0,94,0.00,,,0.00,weatherlink.com 1.10,2013-02-28 13:36:00,
2013-02-28 08:51:00,19.1,17.0,29.67,WNW,302,11.0,12.0,93,0.00,,,0.00,weatherlink.com 1.10,2013-02-28 13:51:00,
2013-02-28 09:06:00,19.3,18.0,29.68,NNW,346,3.0,15.0,93,0.00,,,0.00,weatherlink.com 1.10,2013-02-28 14:06:00,
2013-02-28 09:21:00,19.5,18.0,29.69,NNW,344,6.0,15.0,94,0.00,,,0.00,weatherlink.com 1.10,2013-02-28 14:21:00,
2013-02-28 09:36:00,19.8,18.0,29.68,NW,322,6.0,13.0,94,0.00,,,0.00,weatherlink.com 1.10,2013-02-28 14:36:00,
2013-02-28 09:51:00,20.0,19.0,29.68,WNW,290,4.0,12.0,94,0.00,,,0.00,weatherlink.com 1.10,2013-02-28 14:51:00,
2013-02-28 10:06:00,20.2,19.0,29.69,NW,307,8.0,12.0,93,0.00,,,0.00,weatherlink.com 1.10,2013-02-28 15:06:00,
2013-02-28 10:21:00,20.4,19.0,29.70,West,261,3.0,11.0,94,0.00,,,0.00,weatherlink.com 1.10,2013-02-28 15:21:00,
2013-02-28 10:36:00,20.5,19.0,29.69,West,261,14.0,15.0,94,0.00,,,0.00,weatherlink.com 1.10,2013-02-28 15:36:00,
2013-02-28 10:51:00,20.2,19.0,29.71,NW,323,9.0,14.0,93,0.00,,,0.00,weatherlink.com 1.10,2013-02-28 15:51:00,
2013-02-28 11:06:00,20.3,19.0,29.72,WSW,254,2.0,10.0,94,0.00,,,0.00,weatherlink.com 1.10,2013-02-28 16:06:00,
2013-02-28 11:21:00,20.3,19.0,29.71,ESE,115,4.0,16.0,93,0.00,,,0.00,weatherlink.com 1.10,2013-02-28 16:21:00,
2013-02-28 11:36:00,20.2,19.0,29.73,NW,311,10.0,15.0,93,0.00,,,0.00,weatherlink.com 1.10,2013-02-28 16:36:00,
2013-02-28 11:51:00,20.2,19.0,29.73,NW,311,7.0,12.0,93,0.00,,,0.00,weatherlink.com 1.10,2013-02-28 16:51:00,
2013-02-28 12:06:00,19.9,19.0,29.73,NNW,327,5.0,14.0,94,0.00,,,0.00,weatherlink.com 1.10,2013-02-28 17:06:00,
2013-02-28 12:21:00,19.5,18.0,29.72,NNE,32,4.0,14.0,93,0.00,,,0.00,weatherlink.com 1.10,2013-02-28 17:21:00,
2013-02-28 12:36:00,19.4,18.0,29.72,NNW,329,5.0,18.0,93,0.00,,,0.00,weatherlink.com 1.10,2013-02-28 17:36:00,
2013-02-28 12:51:00,19.7,18.0,29.73,NW,311,4.0,24.0,93,0.00,,,0.00,weatherlink.com 1.10,2013-02-28 17:51:00,
2013-02-28 13:06:00,20.0,19.0,29.72,NW,316,9.0,12.0,94,0.00,,,0.00,weatherlink.com 1.10,2013-02-28 18:06:00,
2013-02-28 13:21:00,20.0,19.0,29.73,WNW,284,6.0,13.0,94,0.00,,,0.00,weatherlink.com 1.10,2013-02-28 18:21:00,
2013-02-28 13:36:00,19.7,18.0,29.72,NE,51,2.0,13.0,93,0.00,,,0.00,weatherlink.com 1.10,2013-02-28 18:36:00,
2013-02-28 13:51:00,19.6,18.0,29.73,NE,41,0.0,12.0,94,0.00,,,0.00,weatherlink.com 1.10,2013-02-28 18:51:00,
2013-02-28 14:06:00,19.7,18.0,29.73,South,171,3.0,12.0,93,0.00,,,0.00,weatherlink.com 1.10,2013-02-28 19:06:00,
2013-02-28 14:21:00,19.8,18.0,29.74,WNW,303,6.0,15.0,93,0.00,,,0.00,weatherlink.com 1.10,2013-02-28 19:21:00,
2013-02-28 14:36:00,19.9,19.0,29.74,NW,313,2.0,16.0,94,0.00,,,0.00,weatherlink.com 1.10,2013-02-28 19:36:00,
2013-02-28 14:51:00,19.8,18.0,29.75,WNW,302,9.0,12.0,94,0.00,,,0.00,weatherlink.com 1.10,2013-02-28 19:51:00,
2013-02-28 15:06:00,19.9,19.0,29.76,NNW,327,2.0,9.0,94,0.00,,,0.00,weatherlink.com 1.10,2013-02-28 20:06:00,
2013-02-28 15:21:00,19.9,19.0,29.76,NW,319,4.0,9.0,94,0.00,,,0.00,weatherlink.com 1.10,2013-02-28 20:21:00,
2013-02-28 15:36:00,19.7,18.0,29.77,NNW,333,7.0,20.0,94,0.00,,,0.00,weatherlink.com 1.10,2013-02-28 20:36:00,
2013-02-28 15:51:00,19.7,18.0,29.78,South,191,7.0,12.0,94,0.00,,,0.00,weatherlink.com 1.10,2013-02-28 20:51:00,
2013-02-28 16:06:00,19.7,18.0,29.78,NNE,22,1.0,10.0,94,0.00,,,0.00,weatherlink.com 1.10,2013-02-28 21:06:00,
2013-02-28 16:21:00,19.7,18.0,29.78,NW,318,6.0,10.0,94,0.00,,,0.00,weatherlink.com 1.10,2013-02-28 21:21:00,
2013-02-28 16:36:00,19.4,18.0,29.79,SW,234,7.0,16.0,94,0.00,,,0.00,weatherlink.com 1.10,2013-02-28 21:36:00,
2013-02-28 16:51:00,19.3,18.0,29.80,WNW,286,8.0,11.0,94,0.00,,,0.00,weatherlink.com 1.10,2013-02-28 21:51:00,
2013-02-28 17:07:00,19.2,18.0,29.80,NNW,331,8.0,13.0,94,0.00,,,0.00,weatherlink.com 1.10,2013-02-28 22:07:00,
2013-02-28 17:22:00,19.3,18.0,29.80,NNW,335,9.0,12.0,94,0.00,,,0.00,weatherlink.com 1.10,2013-02-28 22:22:00,
2013-02-28 17:37:00,19.3,18.0,29.82,NNW,334,7.0,12.0,94,0.00,,,0.00,weatherlink.com 1.10,2013-02-28 22:37:00,
2013-02-28 17:52:00,19.2,18.0,29.82,NW,305,3.0,11.0,94,0.00,,,0.00,weatherlink.com 1.10,2013-02-28 22:52:00,
2013-02-28 18:07:00,19.1,18.0,29.83,NW,306,9.0,15.0,94,0.00,,,0.00,weatherlink.com 1.10,2013-02-28 23:07:00,
2013-02-28 18:22:00,18.9,18.0,29.83,SW,223,7.0,13.0,94,0.00,,,0.00,weatherlink.com 1.10,2013-02-28 23:22:00,
2013-02-28 18:37:00,18.9,18.0,29.84,NW,306,12.0,12.0,94,0.00,,,0.00,weatherlink.com 1.10,2013-02-28 23:37:00,
2013-02-28 18:52:00,18.8,17.0,29.84,WNW,302,8.0,17.0,94,0.00,,,0.00,weatherlink.com 1.10,2013-02-28 23:52:00,
2013-02-28 19:07:00,18.6,17.0,29.84,NNW,342,4.0,22.0,94,0.00,,,0.00,weatherlink.com 1.10,2013-03-01 00:07:00,
2013-02-28 19:22:00,18.5,17.0,29.84,NW,304,16.0,19.0,94,0.00,,,0.00,weatherlink.com 1.10,2013-03-01 00:22:00,
2013-02-28 19:37:00,18.5,17.0,29.85,NW,325,11.0,19.0,94,0.00,,,0.00,weatherlink.com 1.10,2013-03-01 00:37:00,
2013-02-28 19:52:00,18.4,17.0,29.84,WSW,238,6.0,19.0,94,0.00,,,0.00,weatherlink.com 1.10,2013-03-01 00:52:00,
2013-02-28 20:07:00,18.4,17.0,29.84,WNW,290,17.0,22.0,94,0.00,,,0.00,weatherlink.com 1.10,2013-03-01 01:07:00,
2013-02-28 20:22:00,18.4,17.0,29.84,SSW,202,8.0,19.0,94,0.00,,,0.00,weatherlink.com 1.10,2013-03-01 01:22:00,
2013-02-28 20:37:00,18.4,17.0,29.84,NW,308,9.0,19.0,94,0.00,,,0.00,weatherlink.com 1.10,2013-03-01 01:37:00,
2013-02-28 20:52:00,18.4,17.0,29.84,SW,227,16.0,19.0,93,0.00,,,0.00,weatherlink.com 1.10,2013-03-01 01:52:00,
2013-02-28 21:07:00,18.4,17.0,29.85,WNW,296,8.0,19.0,94,0.00,,,0.00,weatherlink.com 1.10,2013-03-01 02:07:00,
2013-02-28 21:22:00,18.5,17.0,29.85,WNW,298,8.0,15.0,94,0.00,,,0.00,weatherlink.com 1.10,2013-03-01 02:22:00,
2013-02-28 21:37:00,18.5,17.0,29.84,WNW,300,11.0,14.0,94,0.00,,,0.00,weatherlink.com 1.10,2013-03-01 02:37:00,
2013-02-28 21:52:00,18.6,17.0,29.83,WNW,292,13.0,17.0,94,0.00,,,0.00,weatherlink.com 1.10,2013-03-01 02:52:00,
2013-02-28 22:07:00,18.6,17.0,29.84,WSW,252,6.0,17.0,94,0.00,,,0.00,weatherlink.com 1.10,2013-03-01 03:07:00,
2013-02-28 22:22:00,18.6,17.0,29.86,West,275,11.0,15.0,94,0.00,,,0.00,weatherlink.com 1.10,2013-03-01 03:22:00,
2013-02-28 22:37:00,18.6,17.0,29.86,NNE,22,3.0,12.0,94,0.00,,,0.00,weatherlink.com 1.10,2013-03-01 03:37:00,
2013-02-28 22:52:00,18.6,17.0,29.87,SSW,201,1.0,14.0,94,0.00,,,0.00,weatherlink.com 1.10,2013-03-01 03:52:00,
2013-02-28 23:07:00,18.6,17.0,29.86,NW,317,9.0,12.0,94,0.00,,,0.00,weatherlink.com 1.10,2013-03-01 04:07:00,
2013-02-28 23:22:00,18.6,17.0,29.86,WNW,288,4.0,14.0,94,0.00,,,0.00,weatherlink.com 1.10,2013-03-01 04:22:00,
2013-02-28 23:37:00,18.7,17.0,29.86,West,281,6.0,15.0,94,0.00,,,0.00,weatherlink.com 1.10,2013-03-01 04:37:00,
2013-02-28 23:52:00,18.7,17.0,29.87,SE,128,6.0,10.0,94,0.00,,,0.00,weatherlink.com 1.10,2013-03-01 04:52:00,